Find Starlink 35363

NORAD ID: 66178 Int'l Des: 2025-243 Owner: SPXS Country: US Constellation: starlink operational
LEOCIRCULAR

現在のビュー

3D地球を読み込み中...

About Starlink 35363

Starlink 35363 (NORAD 66178) is a starlink constellation satellite (v2 mini) launched Oct 26, 2025 by SPXS of US. It operates in LEO, CIRCULAR orbit with a mass of 575.00 kg.

次回通過

Passes for default location (London). Set your location on the main map for personalized predictions.

高度履歴

Loading altitude history...

軌道要素

1 66178U 25243B 26263.65624490 .00020879 00000-0 62723-3 0 9998
2 66178 53.1581 56.8412 0000810 108.4878 251.6213 15.34406518 50545
Epoch: Sep 20, 2026 • Age: 22 hours

現在のステータス

高度 473.2 km
遠地点 / 近地点 N/A
速度 7.63 km/s
衛星直下点 -32.61°S, 178.08°W
打ち上げ日 Oct 26, 2025
運用期間 0.9 years
タイプ internet

技術仕様

分類 Payload
質量 575.00 kg
乾燥質量 530.00 kg
長さ 0.30 m
スパン 29.00 m
形状 ? Box + pan
製造者 SPXS
バスタイプ Starlink V2MO
フェーズステータス In Orbit
所有者/国 SPXS/US

Most Searched